Concordia, KS

9:14 PM CDT on July 22, 2017 (GMT -0500)
Blosser Municipal

Weather History for KCNK - July, 2014

Change the Weather History Date:

Saturday, July 12, 2014

  Actual Average Record
Temperature  
Mean Temperature 85 °F 79 °F  
Max Temperature 96 °F 91 °F 111 °F (1954)
Min Temperature 73 °F 68 °F 54 °F (1895)
Degree Days  
Heating Degree Days 0 0  
Month to date heating degree days 0 0  
Since 1 June heating degree days 1 13  
Since 1 July heating degree days 0 0  
Cooling Degree Days 20 14  
Month to date cooling degree days 155 164  
Year to date cooling degree days 617 518  
Since 1 June cooling degree days 442 429  
Growing Degree Days 34 (Base 50)    
Moisture  
Dew Point 67 °F    
Average Humidity 62    
Maximum Humidity 85    
Minimum Humidity 39    
Precipitation  
Precipitation 0.00 in 0.14 in 2.04 in (1951)
Month to date precipitation 0.84 1.68  
Year to date precipitation 13.37 15.72  
Snow  
Snow 0.00 in 0.00 in T in (1912)
Month to date snowfall 0.0 0.0  
Year to date snowfall 16.9 13.7  
Since 1 July snowfall 0.0 0.0  
Snow Depth 0.00 in    
Sea Level Pressure  
Sea Level Pressure 29.93 in    
Wind  
Wind Speed 13 mph (SSW)    
Max Wind Speed 21 mph    
Max Gust Speed 30 mph    
Visibility 10 miles    
Events      
T = Trace of Precipitation, MM = Missing Value Source: NWS Daily Summary

Daily Weather History Graph

Daily Weather History Graph

Search for Another Location

Airport or City:

Trip Planner

Search our weather history database for the weather conditions in past years. The results will help you decide how hot, cold, wet, or windy it might be!

Date:

Astronomy

Jul. 12, 2014 Rise Set
Actual Time 6:13 AM CDT 8:58 PM CDT
Civil Twilight 5:41 AM CDT 9:30 PM CDT
Nautical Twilight 5:01 AM CDT 10:10 PM CDT
Astronomical Twilight 4:16 AM CDT 10:55 PM CDT
Moon 9:02 PM CDT (7/12) 6:34 AM CDT (7/12)
Length of Visible Light 15h 48m
Length of Day
14h 45m
Full, 100% of the Moon is Illuminated
Jul 12
Full
Jul 18
Last Quarter
Jul 26
New
Aug 3
First Quarter
Aug 10
Full

Hourly Weather History & Observations

Time (CDT) Temp. Heat Index Dew Point Humidity Pressure Visibility Wind Dir Wind Speed Gust Speed Precip Events Conditions
12:55 AM 79.0 °F - 64.9 °F 62% 29.96 in 10.0 mi South 17.3 mph 26.5 mph N/A   Clear
1:55 AM 77.0 °F - 64.9 °F 66% 29.95 in 10.0 mi South 17.3 mph - N/A   Clear
2:55 AM 75.9 °F - 64.9 °F 69% 29.95 in 10.0 mi South 17.3 mph - N/A   Clear
3:55 AM 75.9 °F - 64.0 °F 67% 29.95 in 10.0 mi South 16.1 mph - N/A   Clear
4:55 AM 75.0 °F - 63.0 °F 66% 29.95 in 10.0 mi SSW 13.8 mph - N/A   Clear
5:55 AM 73.9 °F - 63.0 °F 68% 29.95 in 10.0 mi South 12.7 mph 21.9 mph N/A   Clear
6:55 AM 73.0 °F - 63.0 °F 71% 29.95 in 10.0 mi South 16.1 mph - N/A   Clear
7:55 AM 75.0 °F - 64.0 °F 69% 29.96 in 10.0 mi SSW 11.5 mph - N/A   Clear
8:55 AM 79.0 °F - 66.0 °F 64% 29.96 in 10.0 mi SSW 15.0 mph - N/A   Clear
9:55 AM 82.9 °F 85.4 °F 66.9 °F 58% 29.95 in 10.0 mi SSW 15.0 mph 24.2 mph N/A   Clear
10:55 AM 87.1 °F 89.9 °F 66.9 °F 51% 29.95 in 10.0 mi SW 13.8 mph - N/A   Clear
11:55 AM 90.0 °F 93.6 °F 68.0 °F 48% 29.94 in 10.0 mi SSW 15.0 mph - N/A   Clear
12:55 PM 93.0 °F 97.4 °F 68.0 °F 44% 29.93 in 10.0 mi South 11.5 mph - N/A   Clear
1:55 PM 93.0 °F 95.0 °F 64.9 °F 39% 29.92 in 10.0 mi SW 12.7 mph - N/A   Partly Cloudy
2:55 PM 95.0 °F 99.0 °F 66.9 °F 40% 29.91 in 10.0 mi SSW 11.5 mph - N/A   Partly Cloudy
3:55 PM 95.0 °F 97.9 °F 66.0 °F 38% 29.90 in 10.0 mi South 9.2 mph - N/A   Clear
4:55 PM 95.0 °F 97.9 °F 66.0 °F 38% 29.89 in 10.0 mi South 15.0 mph 29.9 mph N/A   Clear
5:55 PM 93.0 °F 95.9 °F 66.0 °F 41% 29.88 in 10.0 mi SSW 9.2 mph - N/A   Partly Cloudy
6:55 PM 93.0 °F 96.4 °F 66.9 °F 42% 29.87 in 10.0 mi SSW 12.7 mph - N/A   Clear
7:55 PM 89.1 °F 92.1 °F 66.9 °F 48% 29.87 in 10.0 mi South 8.1 mph - N/A   Clear
8:55 PM 82.9 °F 90.2 °F 75.0 °F 77% 29.91 in 10.0 mi North 12.7 mph 21.9 mph N/A   Clear
9:55 PM 80.1 °F 84.2 °F 73.0 °F 79% 29.94 in 10.0 mi NNE 11.5 mph - N/A   Partly Cloudy
10:55 PM 78.1 °F - 73.0 °F 84% 29.96 in 10.0 mi NNE 8.1 mph - N/A   Clear
11:55 PM 77.0 °F - 72.0 °F 84% 29.96 in 10.0 mi NNE 10.4 mph - N/A   Mostly Cloudy